DW1779 Weather Reports


Display with metric or nautical units.
time (UTC)temp
F
wind
direction
speed
MPH
gust
MPH
rain 1hr
in
rain 24hr
in
rain mn
in
humidity
%
barometer
mb
20260906143549 83 42 3.0 8.0 0.00 0.00 0.00 82 1017.0
20260906143047 83 55 2.0 6.0 0.00 0.00 0.00 83 1017.0
20260906142547 82 71 1.0 5.0 0.00 0.00 0.00 83 1017.0
20260906142045 81 13 2.0 8.0 0.00 0.00 0.00 84 1016.9
20260906141558 81 109 2.0 8.0 0.00 0.00 0.00 84 1016.9
20260906141042 81 80 2.0 8.0 0.00 0.00 0.00 85 1017.0
20260906140641 80 126 1.0 8.0 0.00 0.00 0.00 87 1017.0
20260906140055 80 56 2.0 6.0 0.00 0.00 0.00 87 1017.0
20260906135554 79 122 2.0 5.0 0.00 0.00 0.00 88 1016.9
20260906135052 78 73 1.0 5.0 0.00 0.00 0.00 89 1016.9
20260906134551 78 100 0.0 5.0 0.00 0.00 0.00 90 1016.9
20260906134049 77 57 0.0 4.0 0.00 0.00 0.00 91 1017.0
20260906133547 77 114 1.0 6.0 0.00 0.00 0.00 92 1016.9
20260906133055 76 68 2.0 6.0 0.00 0.00 0.00 94 1016.8
20260906132545 76 100 1.0 6.0 0.00 0.00 0.00 94 1016.9
20260906132043 75 86 2.0 6.0 0.00 0.00 0.00 96 1016.9
20260906131558 74 32 2.0 4.0 0.00 0.00 0.00 96 1016.9
20260906131041 74 192 0.0 4.0 0.00 0.00 0.00 96 1016.7
20260906130637 74 111 0.0 4.0 0.00 0.00 0.00 97 1016.7
20260906130054 73 115 0.0 4.0 0.00 0.00 0.00 98 1016.6
20260906125545 72 128 0.0 3.0 0.00 0.00 0.00 98 1016.5
20260906125042 71 182 0.0 3.0 0.00 0.00 0.00 98 1016.5
20260906124542 70 146 0.0 2.0 0.00 0.00 0.00 98 1016.5
20260906124042 69 102 0.0 2.0 0.00 0.00 0.00 97 1016.5
20260906123541 69 85 0.0 2.0 0.00 0.00 0.00 97 1016.5
20260906123041 69 86 0.0 2.0 0.00 0.00 0.00 97 1016.6
20260906122540 69 173 0.0 2.0 0.00 0.00 0.00 98 1016.6
20260906122039 69 174 0.0 0.0 0.00 0.00 0.00 97 1016.5
20260906121541 68 13 0.0 0.0 0.00 0.00 0.00 97 1016.4
20260906121037 68 13 0.0 0.0 0.00 0.00 0.00 97 1016.5
20260906120636 68 13 0.0 0.0 0.00 0.00 0.00 97 1016.5
20260906115554 68 13 0.0 0.0 0.00 0.00 0.00 97 1016.1
20260906115057 68 13 0.0 0.0 0.00 0.00 0.00 97 1016.2
20260906114556 69 13 0.0 0.0 0.00 0.00 0.00 97 1016.2
20260906114053 69 13 0.0 0.0 0.00 0.00 0.00 97 1016.1
20260906113553 68 13 0.0 0.0 0.00 0.00 0.00 97 1016.0
20260906113053 68 13 0.0 0.0 0.00 0.00 0.00 97 1016.0
20260906112552 69 13 0.0 0.0 0.00 0.00 0.00 97 1016.0
20260906112052 69 13 0.0 0.0 0.00 0.00 0.00 97 1016.0
20260906111551 69 13 0.0 0.0 0.00 0.00 0.00 97 1016.0
20260906111050 69 13 0.0 1.0 0.00 0.00 0.00 97 1016.0
20260906110651 69 13 0.0 2.0 0.00 0.00 0.00 97 1015.8
20260906110039 69 22 0.0 2.0 0.00 0.00 0.00 97 1015.9
20260906105539 69 32 0.0 0.0 0.00 0.00 0.00 97 1015.8
20260906105039 69 32 0.0 0.0 0.00 0.00 0.00 97 1015.9
20260906104538 69 32 0.0 0.0 0.00 0.00 0.00 97 1015.7
20260906104039 69 32 0.0 0.0 0.00 0.00 0.00 97 1015.7
20260906103542 69 32 0.0 0.0 0.00 0.00 0.00 97 1015.7
20260906103040 69 32 0.0 0.0 0.00 0.00 0.00 97 1015.7
20260906102537 69 32 0.0 0.0 0.00 0.00 0.00 97 1015.6
20260906102036 69 32 0.0 0.0 0.00 0.00 0.00 97 1015.6
20260906101538 69 32 0.0 0.0 0.00 0.00 0.00 97 1015.6
20260906101035 69 32 0.0 0.0 0.00 0.00 0.00 97 1015.4
20260906100634 69 32 0.0 0.0 0.00 0.00 0.00 97 1015.4
20260906100038 69 32 0.0 0.0 0.00 0.00 0.00 97 1015.4
20260906095537 69 32 0.0 0.0 0.00 0.00 0.00 97 1015.4
20260906095037 69 32 0.0 0.0 0.00 0.00 0.00 97 1015.3
20260906094543 69 32 0.0 0.0 0.00 0.00 0.00 97 1015.1
20260906094036 69 32 0.0 0.0 0.00 0.00 0.00 97 1015.1
20260906093536 69 32 0.0 0.0 0.00 0.00 0.00 97 1015.1
20260906093037 70 32 0.0 0.0 0.00 0.00 0.00 97 1015.1
20260906092535 70 32 0.0 0.0 0.00 0.00 0.00 97 1015.1
20260906092036 70 32 0.0 0.0 0.00 0.00 0.00 97 1015.0
20260906091536 70 32 0.0 0.0 0.00 0.00 0.00 97 1015.0
20260906091037 70 32 0.0 0.0 0.00 0.00 0.00 97 1015.0
20260906090634 70 32 0.0 0.0 0.00 0.00 0.00 97 1015.0
20260906090047 70 32 0.0 0.0 0.00 0.00 0.00 97 1015.0
20260906085538 70 32 0.0 0.0 0.00 0.00 0.00 96 1014.9
20260906085039 70 32 0.0 0.0 0.00 0.00 0.00 96 1015.0
20260906084535 70 32 0.0 0.0 0.00 0.00 0.00 96 1014.9
20260906084036 70 32 0.0 0.0 0.00 0.00 0.00 96 1014.8
20260906083537 70 32 0.0 0.0 0.00 0.00 0.00 96 1014.8
20260906083037 70 32 0.0 0.0 0.00 0.00 0.00 96 1014.9
20260906082536 70 32 0.0 0.0 0.00 0.00 0.00 96 1014.9
20260906082032 70 32 0.0 0.0 0.00 0.00 0.00 96 1014.9
20260906081532 70 32 0.0 0.0 0.00 0.00 0.00 96 1014.8
20260906081035 70 32 0.0 0.0 0.00 0.00 0.00 96 1014.8
20260906080631 70 32 0.0 0.0 0.00 0.00 0.00 96 1014.8
20260906080056 70 32 0.0 0.0 0.00 0.00 0.00 96 1014.8
20260906075555 70 32 0.0 0.0 0.00 0.00 0.00 96 1014.8
20260906075055 70 32 0.0 0.0 0.00 0.00 0.00 96 1014.9
20260906074554 70 32 0.0 0.0 0.00 0.00 0.00 96 1015.0
20260906074054 71 32 0.0 0.0 0.00 0.00 0.00 96 1015.0
20260906073557 71 32 0.0 0.0 0.00 0.00 0.00 96 1015.1
20260906073052 71 32 0.0 0.0 0.00 0.00 0.00 96 1015.2
20260906072552 71 32 0.0 0.0 0.00 0.00 0.00 96 1015.1
20260906072051 71 32 0.0 0.0 0.00 0.00 0.00 96 1015.2
20260906071551 71 32 0.0 0.0 0.00 0.00 0.00 96 1015.2
20260906071052 71 32 0.0 0.0 0.00 0.00 0.00 96 1015.3
20260906070650 71 32 0.0 0.0 0.00 0.00 0.00 96 1015.2
20260906070053 71 32 0.0 0.0 0.00 0.00 0.00 96 1015.2
20260906065552 71 32 0.0 0.0 0.00 0.00 0.00 95 1015.2
20260906065052 71 32 0.0 0.0 0.00 0.00 0.00 95 1015.2
20260906064552 71 32 0.0 0.0 0.00 0.00 0.00 95 1015.3
20260906064051 72 32 0.0 0.0 0.00 0.00 0.00 95 1015.4
20260906063550 72 32 0.0 0.0 0.00 0.00 0.00 95 1015.3
20260906063050 72 32 0.0 2.0 0.00 0.00 0.00 96 1015.3
20260906062549 72 32 0.0 2.0 0.00 0.00 0.00 95 1015.5
20260906062050 72 193 0.0 0.0 0.00 0.00 0.00 95 1015.4
20260906061551 72 193 0.0 0.0 0.00 0.00 0.00 95 1015.4
20260906061048 72 193 0.0 0.0 0.00 0.00 0.00 95 1015.4
20260906060648 72 193 0.0 1.0 0.00 0.00 0.00 95 1015.4
20260906060118 72 193 0.0 2.0 0.00 0.00 0.00 95 1015.5
20260906055552 72 193 0.0 2.0 0.00 0.00 0.00 95 1015.5
20260906055052 72 193 0.0 4.0 0.00 0.00 0.00 95 1015.6
20260906054605 72 193 1.0 4.0 0.00 0.00 0.00 95 1015.5
20260906054051 72 338 0.0 3.0 0.00 0.00 0.00 95 1015.4
20260906053550 72 200 1.0 3.0 0.00 0.00 0.00 95 1015.4
20260906053050 72 188 0.0 2.0 0.00 0.00 0.00 95 1015.3
20260906052551 72 188 0.0 2.0 0.00 0.00 0.00 95 1015.3
20260906052050 72 188 0.0 0.0 0.00 0.00 0.00 95 1015.3
20260906051549 72 188 0.0 0.0 0.00 0.00 0.00 95 1015.2
20260906051050 73 188 0.0 0.0 0.00 0.00 0.00 95 1015.3
20260906050649 73 188 0.0 0.0 0.00 0.00 0.00 95 1015.2
20260906050040 73 188 0.0 0.0 0.00 0.00 0.00 95 1015.3
20260906045543 73 188 0.0 0.0 0.00 0.00 0.00 95 1015.2
20260906045040 73 188 0.0 0.0 0.00 0.00 0.00 95 1015.1
20260906044540 73 188 0.0 0.0 0.00 0.00 0.00 94 1015.0
20260906044039 73 188 0.0 0.0 0.00 0.00 0.00 94 1015.1
20260906043539 73 188 0.0 0.0 0.00 0.00 0.00 94 1015.1
20260906043040 73 188 0.0 0.0 0.00 0.00 0.00 94 1015.2
20260906042539 73 188 0.0 0.0 0.00 0.00 0.00 94 1015.2
20260906042039 73 188 0.0 0.0 0.00 0.00 0.00 94 1015.2
20260906041539 73 188 0.0 0.0 0.00 0.00 0.00 94 1015.2
20260906041040 73 188 0.0 0.0 0.00 0.00 0.00 93 1015.2
20260906040639 73 188 0.0 0.0 0.00 0.00 0.00 93 1015.1
20260906040100 74 188 0.0 0.0 0.00 0.00 0.00 93 1015.0
20260906035600 74 188 0.0 0.0 0.00 0.00 0.00 93 1015.1
20260906035100 74 188 0.0 0.0 0.00 0.00 0.00 93 1015.0
20260906034606 74 188 0.0 0.0 0.00 0.00 0.00 93 1015.1
20260906034059 74 188 0.0 0.0 0.00 0.00 0.00 92 1015.0
20260906033559 74 188 0.0 0.0 0.00 0.00 0.00 92 1015.0
20260906033100 74 188 0.0 0.0 0.00 0.00 0.00 92 1015.1
20260906032559 74 188 0.0 0.0 0.00 0.00 0.00 92 1015.0
20260906032100 75 188 0.0 0.0 0.00 0.00 0.00 91 1015.0
20260906031600 75 188 0.0 2.0 0.00 0.00 0.00 91 1014.8
20260906031059 75 188 0.0 2.0 0.00 0.00 0.00 91 1015.0
20260906030700 75 188 0.0 1.0 0.00 0.00 0.00 91 1015.1
20260906030054 75 188 0.0 0.0 0.00 0.00 0.00 91 1015.0
20260906025552 75 188 0.0 0.0 0.00 0.00 0.00 91 1015.0
20260906025054 75 188 0.0 0.0 0.00 0.00 0.00 90 1015.0
20260906024555 75 188 0.0 0.0 0.00 0.00 0.00 90 1014.9
20260906024052 76 188 0.0 0.0 0.00 0.00 0.00 89 1014.9
20260906023552 76 188 0.0 0.0 0.00 0.00 0.00 89 1014.9
20260906023052 76 188 0.0 0.0 0.00 0.00 0.00 89 1014.7
20260906022551 76 188 0.0 0.0 0.00 0.00 0.00 88 1014.6
20260906022052 77 188 0.0 0.0 0.00 0.00 0.00 87 1014.6
20260906021558 77 188 0.0 0.0 0.00 0.00 0.00 88 1014.5
20260906021052 77 188 0.0 0.0 0.00 0.00 0.00 87 1014.5
20260906020651 77 188 0.0 0.0 0.00 0.00 0.00 87 1014.4
20260906020051 77 188 0.0 0.0 0.00 0.00 0.00 86 1014.3
20260906015550 77 188 0.0 0.0 0.00 0.00 0.00 86 1014.3
20260906015050 78 188 0.0 3.0 0.00 0.00 0.00 86 1014.2
20260906014552 78 188 0.0 3.0 0.00 0.00 0.00 86 1014.2
20260906014051 78 113 0.0 1.0 0.00 0.00 0.00 86 1014.0
20260906013550 78 113 0.0 0.0 0.00 0.00 0.00 85 1013.7
20260906013050 78 113 0.0 0.0 0.00 0.00 0.00 84 1013.7
20260906012549 79 113 0.0 0.0 0.00 0.00 0.00 84 1013.5
20260906012049 79 113 0.0 0.0 0.00 0.00 0.00 82 1013.5
20260906011550 79 113 0.0 0.0 0.00 0.00 0.00 83 1013.4
20260906011048 80 113 0.0 0.0 0.00 0.00 0.00 82 1013.4
20260906010649 80 113 0.0 0.0 0.00 0.00 0.00 81 1013.4
20260906010111 81 113 0.0 0.0 0.00 0.00 0.00 80 1013.2
20260906005546 81 113 0.0 0.0 0.00 0.00 0.00 79 1013.3
20260906005049 81 113 0.0 0.0 0.00 0.00 0.00 79 1013.2
20260906004559 82 113 0.0 0.0 0.00 0.00 0.00 78 1013.2
20260906004046 82 113 0.0 0.0 0.00 0.00 0.00 78 1013.2
20260906003546 83 113 0.0 0.0 0.00 0.00 0.00 78 1013.2
20260906003046 84 113 0.0 0.0 0.00 0.00 0.00 77 1013.2
20260906002546 84 113 0.0 0.0 0.00 0.00 0.00 75 1013.2
20260906002046 85 113 0.0 0.0 0.00 0.00 0.00 75 1013.3
20260906001559 85 113 0.0 0.0 0.00 0.00 0.00 73 1013.4
20260906001045 86 113 0.0 0.0 0.00 0.00 0.00 71 1013.4
20260906000646 86 113 0.0 1.0 0.00 0.00 0.00 71 1013.4
20260906000059 86 113 0.0 1.0 0.00 0.00 0.00 70 1013.5
20260905235559 87 98 0.0 1.0 0.00 0.00 0.00 68 1013.5
20260905235058 87 97 0.0 1.0 0.00 0.00 0.00 69 1013.7
20260905234557 87 92 0.0 2.0 0.00 0.00 0.00 71 1013.6
20260905234057 88 92 0.0 2.0 0.00 0.00 0.00 69 1013.6
20260905233558 88 121 0.0 1.0 0.00 0.00 0.00 67 1013.7
20260905233058 88 113 0.0 2.0 0.00 0.00 0.00 68 1013.7
20260905232557 89 125 0.0 2.0 0.00 0.00 0.00 68 1013.7
20260905232057 88 165 0.0 3.0 0.00 0.00 0.00 67 1013.6
20260905231559 88 135 1.0 3.0 0.00 0.00 0.00 69 1013.6
20260905231057 88 143 0.0 2.0 0.00 0.00 0.00 69 1013.7
20260905230656 88 109 0.0 2.0 0.00 0.00 0.00 67 1013.6
20260905230052 88 128 0.0 1.0 0.00 0.00 0.00 69 1013.4
20260905225551 88 128 0.0 1.0 0.00 0.00 0.00 67 1013.5
20260905225051 88 128 0.0 1.0 0.00 0.00 0.00 67 1013.4
20260905224552 89 128 0.0 1.0 0.00 0.00 0.00 68 1013.5
20260905224054 89 143 0.0 1.0 0.00 0.00 0.00 66 1013.5
20260905223551 88 141 0.0 2.0 0.00 0.00 0.00 66 1013.4
20260905223055 89 144 0.0 2.0 0.00 0.00 0.00 64 1013.5
20260905222551 89 132 0.0 2.0 0.00 0.00 0.00 63 1013.5
20260905222050 89 169 0.0 2.0 0.00 0.00 0.00 63 1013.5
20260905221557 89 136 0.0 5.0 0.00 0.00 0.00 63 1013.6
20260905221051 89 136 1.0 5.0 0.00 0.00 0.00 64 1013.6
20260905220650 90 145 0.0 4.0 0.00 0.00 0.00 62 1013.5
20260905220046 91 133 1.0 4.0 0.00 0.00 0.00 60 1013.6
20260905215546 92 121 1.0 4.0 0.00 0.00 0.00 55 1013.7
20260905215045 92 123 1.0 4.0 0.00 0.00 0.00 58 1013.7
20260905214548 93 116 1.0 4.0 0.00 0.00 0.00 56 1013.7
20260905214046 94 136 2.0 4.0 0.00 0.00 0.00 51 1013.6
20260905213546 94 92 1.0 5.0 0.00 0.00 0.00 53 1013.6
20260905213048 92 148 1.0 6.0 0.00 0.00 0.00 55 1013.6
20260905212547 93 109 1.0 6.0 0.00 0.00 0.00 55 1013.6
20260905212045 94 117 1.0 4.0 0.00 0.00 0.00 52 1013.6
20260905211547 95 128 2.0 5.0 0.00 0.00 0.00 49 1013.7
20260905211045 96 67 1.0 6.0 0.00 0.00 0.00 52 1013.6
20260905210644 97 96 2.0 6.0 0.00 0.00 0.00 46 1013.6
20260905210117 98 110 3.0 8.0 0.00 0.00 0.00 46 1013.6
20260905205603 98 101 1.0 6.0 0.00 0.00 0.00 47 1013.6
20260905205059 98 331 2.0 9.0 0.00 0.00 0.00 44 1013.6
20260905204601 98 38 2.0 9.0 0.00 0.00 0.00 44 1013.8
20260905204058 98 65 1.0 6.0 0.00 0.00 0.00 47 1014.0
20260905203602 99 19 1.0 6.0 0.00 0.00 0.00 43 1013.9
20260905203158 99 154 2.0 6.0 0.00 0.00 0.00 44 1014.0
20260905202557 98 360 2.0 5.0 0.00 0.00 0.00 44 1014.1
20260905202102 98 63 1.0 8.0 0.00 0.00 0.00 48 1014.0
20260905201556 97 96 1.0 8.0 0.00 0.00 0.00 46 1014.3
20260905201055 98 61 1.0 9.0 0.00 0.00 0.00 45 1014.4
20260905200655 99 84 3.0 11.0 0.00 0.00 0.00 43 1014.4
20260905200115 100 75 5.0 12.0 0.00 0.00 0.00 42 1014.4
20260905195554 101 38 2.0 6.0 0.00 0.00 0.00 44 1014.3
20260905195052 100 30 2.0 5.0 0.00 0.00 0.00 43 1014.5
20260905194552 100 319 2.0 5.0 0.00 0.00 0.00 42 1014.3
20260905194056 100 304 3.0 7.0 0.00 0.00 0.00 42 1014.4
20260905193551 100 60 2.0 10.0 0.00 0.00 0.00 44 1014.6
20260905193051 100 57 4.0 10.0 0.00 0.00 0.00 43 1014.6
20260905192550 100 13 1.0 8.0 0.00 0.00 0.00 43 1014.6
20260905192051 99 85 2.0 8.0 0.00 0.00 0.00 43 1014.6
20260905191550 100 355 4.0 8.0 0.00 0.00 0.00 42 1014.7
20260905191049 100 16 4.0 8.0 0.00 0.00 0.00 42 1014.7
20260905190648 100 348 3.0 8.0 0.00 0.00 0.00 42 1014.7
20260905190054 100 286 2.0 5.0 0.00 0.00 0.00 42 1014.8
20260905185552 99 209 3.0 5.0 0.00 0.00 0.00 41 1014.9
20260905185051 99 125 2.0 4.0 0.00 0.00 0.00 43 1015.0
20260905184600 96 12 1.0 5.0 0.00 0.00 0.00 50 1015.1
20260905184053 96 31 1.0 7.0 0.00 0.00 0.00 46 1015.2
20260905183551 98 355 4.0 7.0 0.00 0.00 0.00 44 1015.1
20260905183051 97 52 3.0 8.0 0.00 0.00 0.00 46 1015.3
20260905182550 98 343 4.0 8.0 0.00 0.00 0.00 45 1015.3
20260905182050 99 360 3.0 8.0 0.00 0.00 0.00 47 1015.2
20260905181550 99 28 3.0 8.0 0.00 0.00 0.00 44 1015.2
20260905181047 99 313 3.0 6.0 0.00 0.00 0.00 46 1015.3
20260905180647 98 321 2.0 6.0 0.00 0.00 0.00 45 1015.4
20260905180051 99 67 2.0 6.0 0.00 0.00 0.00 45 1015.4
20260905175552 98 25 1.0 3.0 0.00 0.00 0.00 45 1015.5
20260905175051 98 241 1.0 5.0 0.00 0.00 0.00 43 1015.6
20260905174550 98 346 2.0 8.0 0.00 0.00 0.00 44 1015.7
20260905174049 98 336 3.0 8.0 0.00 0.00 0.00 43 1015.8
20260905173548 98 283 2.0 5.0 0.00 0.00 0.00 46 1015.8
20260905173052 97 302 1.0 4.0 0.00 0.00 0.00 46 1016.0
20260905172547 97 186 1.0 4.0 0.00 0.00 0.00 45 1016.1
20260905172046 97 76 1.0 5.0 0.00 0.00 0.00 45 1016.1
20260905171545 97 92 1.0 8.0 0.00 0.00 0.00 48 1016.2
20260905171043 97 49 3.0 8.0 0.00 0.00 0.00 48 1016.3
20260905170509 97 53 2.0 7.0 0.00 0.00 0.00 48 1016.4
20260905170007 97 112 2.0 7.0 0.00 0.00 0.00 53 1016.4
20260905165506 97 315 2.0 8.0 0.00 0.00 0.00 46 1016.5
20260905165008 96 355 3.0 8.0 0.00 0.00 0.00 47 1016.5
20260905164505 97 5 2.0 6.0 0.00 0.00 0.00 48 1016.6
20260905164004 96 306 2.0 4.0 0.00 0.00 0.00 48 1016.5
20260905163505 96 10 1.0 5.0 0.00 0.00 0.00 49 1016.5
20260905163002 95 324 3.0 5.0 0.00 0.00 0.00 49 1016.6
20260905162502 94 11 2.0 5.0 0.00 0.00 0.00 56 1016.5
20260905162100 93 9 0.0 3.0 0.00 0.00 0.00 60 1016.5
20260905161600 93 14 1.0 5.0 0.00 0.00 0.00 58 1016.6
20260905161100 94 34 2.0 5.0 0.00 0.00 0.00 58 1016.6
20260905160505 93 281 1.0 4.0 0.00 0.00 0.00 55 1016.6
20260905160005 92 323 1.0 5.0 0.00 0.00 0.00 60 1016.5
20260905155507 94 292 1.0 5.0 0.00 0.00 0.00 52 1016.7
20260905155003 93 261 2.0 6.0 0.00 0.00 0.00 53 1016.7
20260905154504 94 315 2.0 8.0 0.00 0.00 0.00 56 1016.7
20260905154005 94 312 2.0 8.0 0.00 0.00 0.00 51 1016.7
20260905153503 94 302 1.0 6.0 0.00 0.00 0.00 54 1016.5
20260905153001 93 316 2.0 6.0 0.00 0.00 0.00 53 1016.5
20260905152603 93 5 1.0 4.0 0.00 0.00 0.00 59 1016.5
20260905152058 92 348 2.0 5.0 0.00 0.00 0.00 60 1016.6
20260905151613 92 20 2.0 5.0 0.00 0.00 0.00 60 1016.5
20260905151054 91 340 2.0 5.0 0.00 0.00 0.00 61 1016.6
20260905150511 92 5 1.0 4.0 0.00 0.00 0.00 59 1016.4
20260905150006 91 269 1.0 6.0 0.00 0.00 0.00 59 1016.4
20260905145503 91 323 3.0 8.0 0.00 0.00 0.00 61 1016.5
20260905145003 91 328 3.0 8.0 0.00 0.00 0.00 62 1016.5
20260905144502 91 294 1.0 8.0 0.00 0.00 0.00 62 1016.5
20260905144103 91 287 5.0 8.0 0.00 0.00 0.00 60 1016.5